Location: *
(43.0409°N, 0.1694°E)
Time: 11:16:53
(UTC+00:00)

ALOS - Pass Details

Date: 03 October 2023
Orbit: 676 x 679 km, 98.0° (Epoch: 01 December)

Event Time Altitude Azimuth Distance (km) Brightness Sun altitude
Rises 03:52:07 0° 1° (N) 3,053 5.9 -23.6°
Reaches altitude 10° 03:54:37 10° 350° (N) 2,132 4.9 -23.2°
Enters shadow 03:56:43 21° 328° (NNW) 1,519 3.9 -22.8°
